Hlavní strana
METAR-TAF:

METAR-TAF

Letiště :

Corinth, Mississippi, Spojené státy americké

zeměpisná šířka: 34-54-54N, zeměpisná délka: 088-36-13W, výška: 130 m

Aktuální stav počasí

Zpráva byla vytvořena před 5 minutami, v 03:35 UTC
Bezvětří
Teplota 5°C
Vlhkost vzduchu 87%
Tlak 1017 hPa
Viditelnost: 16.1 km
Jasno

METAR: KCRX 200335Z AUTO 00000KT 10SM CLR 05/03 A3003 RMK AO2

Čas: 21:40 (03:40 UTC)


TAF: chybějící

Stav a předpovědi počasí z více než 4 000 letišť (zprávy METAR a TAF).

Červené a žluté tečky na mapě představují dostupné meteorologické stanice.

Když kurzor umístíte na tečku, zobrazí se název stanice.

Pak kliknutím zobrazíte stav a předpověď počasí.

Chcete-li změnit mapu, kliknutím na zelené tlačítko se znaménkem +mapu přiblížíte, kliknutím na zelené tlačítko se znaménkem – mapu oddálíte a kliknutím na zelené šipky přejdete na sousední mapy.


METAR-TAF: